Weather History for PHNL - February, 2012

Change the Weather History Date:

Friday, February 10, 2012

  Actual Average Record
Temperature  
Mean Temperature 73 °F 73 °F  
Max Temperature 80 °F 80 °F 85 °F (1958)
Min Temperature 66 °F 66 °F 56 °F (1903)
Degree Days  
Heating Degree Days 0 0  
Month to date heating degree days 0 0  
Since 1 July heating degree days 0 0  
Cooling Degree Days 8 8  
Month to date cooling degree days 47 80  
Year to date cooling degree days 347 334  
Growing Degree Days 23 (Base 50)    
Moisture  
Dew Point 60 °F    
Average Humidity 63    
Maximum Humidity 81    
Minimum Humidity 45    
Precipitation  
Precipitation 0.00 in 0.06 in 1.34 in (1916)
Month to date precipitation 0.65 0.63  
Year to date precipitation 1.21 2.94  
Snow  
Snow 0.00 in - - ()
Month to date snowfall 0.0  
Since 1 July snowfall 0.0  
Snow Depth 0.00 in    
Sea Level Pressure  
Sea Level Pressure 30.22 in    
Wind  
Wind Speed 11 mph (ENE)    
Max Wind Speed 24 mph    
Max Gust Speed 30 mph    
Visibility 10 miles    
Events      
T = Trace of Precipitation, MM = Missing Value Source: NWS Daily Summary

Daily Weather History Graph

Daily Weather History Graph

Search for Another Location

Airport or City:

Trip Planner

Search our weather history database for the weather conditions in past years. The results will help you decide how hot, cold, wet, or windy it might be!

Date:

Astronomy

Feb. 10, 2012 Rise Set
Actual Time 7:05 AM HST 6:26 PM HST
Civil Twilight 6:42 AM HST 6:49 PM HST
Nautical Twilight 6:15 AM HST 7:16 PM HST
Astronomical Twilight 5:49 AM HST 7:42 PM HST
Moon 9:39 PM HST (2/10) 8:53 AM HST (2/10)
Length of Visible Light 12h 07m
Length of Day
11h 21m
Waning Gibbous, 89% of the Moon is Illuminated
Feb 10
Waning Gibbous
Feb 14
Last Quarter
Feb 21
New
Feb 29
First Quarter
Mar 7
Full

Hourly Weather History & Observations

Time (HST) Temp. Heat Index Dew Point Humidity Pressure Visibility Wind Dir Wind Speed Gust Speed Precip Events Conditions
12:53 AM 70.0 °F - 59.0 °F 68% 30.26 in 10.0 mi NE 9.2 mph 16.1 mph N/A   Partly Cloudy
1:53 AM 69.1 °F - 59.0 °F 70% 30.25 in 10.0 mi ENE 9.2 mph - N/A   Partly Cloudy
2:53 AM 69.1 °F - 59.0 °F 70% 30.22 in 10.0 mi NE 5.8 mph - N/A   Partly Cloudy
3:53 AM 66.9 °F - 60.1 °F 79% 30.21 in 10.0 mi Calm Calm - N/A   Partly Cloudy
4:53 AM 66.9 °F - 61.0 °F 81% 30.21 in 10.0 mi East 3.5 mph - N/A   Partly Cloudy
5:53 AM 68.0 °F - 60.1 °F 76% 30.22 in 10.0 mi East 8.1 mph - N/A   Partly Cloudy
6:53 AM 68.0 °F - 60.1 °F 76% 30.24 in 10.0 mi East 3.5 mph - N/A   Partly Cloudy
7:53 AM 71.1 °F - 60.1 °F 68% 30.25 in 10.0 mi NE 11.5 mph - N/A   Partly Cloudy
8:53 AM 73.9 °F - 60.1 °F 62% 30.26 in 10.0 mi NE 12.7 mph - N/A   Partly Cloudy
9:53 AM 77.0 °F - 57.9 °F 52% 30.26 in 10.0 mi ENE 17.3 mph 21.9 mph N/A   Scattered Clouds
10:53 AM 77.0 °F - 57.9 °F 52% 30.26 in 10.0 mi NE 12.7 mph - N/A   Scattered Clouds
11:53 AM 78.1 °F - 57.0 °F 48% 30.23 in 10.0 mi ENE 13.8 mph - N/A   Scattered Clouds
12:53 PM 80.1 °F 80.4 °F 57.0 °F 45% 30.19 in 10.0 mi ENE 16.1 mph 25.3 mph N/A   Scattered Clouds
1:53 PM 79.0 °F - 57.9 °F 48% 30.16 in 10.0 mi ENE 21.9 mph 26.5 mph N/A   Scattered Clouds
2:53 PM 80.1 °F 80.6 °F 57.9 °F 47% 30.15 in 10.0 mi ENE 18.4 mph - N/A   Scattered Clouds
3:53 PM 78.1 °F - 59.0 °F 52% 30.15 in 10.0 mi ENE 24.2 mph 29.9 mph N/A   Partly Cloudy
4:53 PM 77.0 °F - 59.0 °F 54% 30.16 in 10.0 mi ENE 18.4 mph 27.6 mph N/A   Partly Cloudy
5:53 PM 75.0 °F - 60.1 °F 60% 30.17 in 10.0 mi ENE 15.0 mph 24.2 mph N/A   Partly Cloudy
6:53 PM 73.0 °F - 61.0 °F 66% 30.19 in 10.0 mi ENE 9.2 mph - N/A   Partly Cloudy
7:53 PM 73.0 °F - 63.0 °F 71% 30.22 in 10.0 mi ENE 9.2 mph - N/A   Partly Cloudy
8:53 PM 72.0 °F - 64.0 °F 76% 30.25 in 10.0 mi NE 5.8 mph - N/A   Partly Cloudy
9:53 PM 71.1 °F - 63.0 °F 75% 30.26 in 10.0 mi Calm Calm - N/A   Scattered Clouds
10:53 PM 71.1 °F - 64.9 °F 81% 30.27 in 10.0 mi NE 3.5 mph - N/A   Scattered Clouds
11:53 PM 71.1 °F - 64.0 °F 78% 30.26 in 10.0 mi NNW 4.6 mph - N/A   Mostly Cloudy